User: anonymous   Login
Location: SAPM � Hemmingford
(45.0500°N, 73.5833°W)
Time: 15:48:38
(UTC-04:00)
Language:

Cosmos 1603 - Orbit

View from above orbital plane
View from above orbital plane
View from above satellite
View from above satellite

Ground track
Ground track

The orbit data is extracted from the following two-line orbital elements,

1 15333U 84106A   16242.47558492  .00000081  00000-0  67508-4 0  9992
2 15333  71.0277 343.2016 0021500 288.8472  71.0319 14.14034577647023
Epoch (UTC): 29 August 2016 11:24:50
Eccentricity: 0.0021500
inclination: 71.0277°
perigee height: 830 km
apogee height: 861 km
right ascension of ascending node: 343.2016°
argument of perigee: 288.8472°
revolutions per day: 14.14034577
mean anomaly at epoch: 71.0319°
orbit number at epoch: 64702

The dashed part of the orbit path shows where the satellite is in the earth's shadow,  

DLR